Location: Newark
(45.7114°N, 9.7358°E)
Time: 03:43:26
(UTC+00:00)

N. Korean satellite - Visible Passes

Search period start: 21 October 2019 00:00
Search period end: 31 October 2019 00:00
Orbit: 455 x 508 km, 97.2° (Epoch: 20 October)

Date Brightness Start Highest point End Pass type
(mag) Time Alt. Az. Time Alt. Az. Time Alt. Az.
21 Oct 9.9 04:24:20 10° NE 04:26:48 17° E 04:29:17 10° SE visible
23 Oct 7.5 05:06:12 10° NNE 05:09:46 55° E 05:13:23 10° S visible
23 Oct 9.7 17:18:12 10° SW 17:20:42 19° W 17:23:14 10° NW visible
24 Oct 9.1 04:41:14 10° NE 04:44:23 27° E 04:47:33 10° SSE visible
24 Oct 8.3 16:52:01 10° SSW 16:55:14 37° W 16:58:31 10° NNW visible
25 Oct 10.2 04:16:50 10° ENE 04:18:54 14° E 04:20:58 10° SE visible
26 Oct 10.2 17:36:54 10° WSW 17:38:17 12° W 17:39:39 10° WNW visible
27 Oct 8.0 04:58:22 10° NNE 05:01:54 44° E 05:05:27 10° S visible
27 Oct 9.3 17:09:56 10° SSW 17:12:44 23° W 17:15:37 10° NW visible
28 Oct 9.4 04:33:31 10° NE 04:36:28 23° E 04:39:27 10° SSE visible
28 Oct 7.7 16:43:57 10° S 16:47:18 47° W 16:50:43 10° NNW visible
29 Oct 10.3 04:09:29 10° ENE 04:10:57 12° E 04:12:24 10° ESE visible
30 Oct 6.9 05:15:40 10° NNE 05:19:21 75° E 05:23:04 10° S visible
30 Oct 10.0 17:28:14 10° SW 17:30:16 15° W 17:32:21 10° NW visible
